• Join FlightAware (Why Join?)
  • Login
  • US Flag 
12:05AM EDT


 

Airport Tracker/Info


-or-


 

Live Flight TrackerFlight Track Log ✈ SKW4664 ✈ 02-Oct-2013 ✈ KSMF - KLAX

Flight Track Log - Related Links

Times and Time Zones

All times are in EDT time to prevent confusion due to time zone crossing. See the SKW4664 flight status page for this flight to view local times or setup timezone preferences in your user account.

Time Position Orientation Groundspeed Altitude Reporting Facility
EDT Latitude Longitude Course Direction KTS MPH feet Rate Location/Type
12:29PM 38.6686 -121.5825 111° Southeast 178 205 1,000  Level Oakland Center
12:30PM 38.6236 -121.5347 140° Southeast 219 252 3,000 2,460 Climbing Oakland Center
12:31PM 38.5825 -121.4397 119° Southeast 282 325 6,100 2,820 Climbing Oakland Center
12:32PM 38.3927 -121.3741 134° Southeast  Level Estimated
12:32PM 38.5408 -121.3522 121° Southeast 289 333 8,900  Level Oakland Center
12:33PM 38.2917 -121.3023 103° East  Level Estimated
12:34PM 38.1906 -121.2306 111° Southeast  Level Estimated
12:34PM 38.4511 -121.1572 120° Southeast 323 372 14,100  Level Oakland Center
12:35PM 38.4031 -121.0528 120° Southeast 341 392 16,600 2,160 Climbing Oakland Center
12:36PM 38.3517 -120.9419 121° Southeast 362 417 18,600 1,860 Climbing Oakland Center
12:37PM 38.2983 -120.8275 121° Southeast 376 433 20,500 1,980 Climbing Oakland Center
12:38PM 38.2414 -120.7075 121° Southeast 396 456 22,700 2,220 Climbing Oakland Center
12:39PM 38.1469 -120.6006 138° Southeast 378 435 25,100 1,920 Climbing Oakland Center
12:40PM 38.0611 -120.5175 143° Southeast 385 443 26,700 900 Climbing Oakland Center
12:42PM 37.9742 -120.4342 143° Southeast 391 450 27,000 120 Climbing Oakland Center
12:43PM 37.8856 -120.3497 143° Southeast 399 459 27,000  Level Oakland Center
12:44PM 37.7997 -120.2628 141° Southeast 395 455 27,000 480 Level Oakland Center
12:45PM 37.7114 -120.1786 143° Southeast 397 457 28,000 1,020 Climbing Oakland Center
12:46PM 37.6219 -120.0933 143° Southeast 400 460 29,100 1,020 Climbing Oakland Center
12:47PM 37.5283 -120.0036 143° Southeast 414 476 30,200 1,080 Climbing Oakland Center
12:48PM 37.4131 -119.8942 143° Southeast 429 494 31,400 960 Climbing Oakland Center
12:49PM 37.3169 -119.7994 142° Southeast 437 503 32,200 840 Climbing Oakland Center
12:50PM 37.2178 -119.7058 143° Southeast 443 510 33,200 960 Climbing Oakland Center
12:51PM 37.1128 -119.6200 147° Southeast 447 514 34,200 840 Climbing Oakland Center
12:52PM 36.9964 -119.5956 170° South 430 495 35,000 360 Climbing Oakland Center
12:53PM 36.8822 -119.6006 182° South 415 478 35,000  Level Oakland Center
12:54PM 36.7719 -119.6025 181° South 402 463 35,000  Level Oakland Center
12:56PM 36.5506 -119.6056 181° South 399 459 35,000  Level Los Angeles Center
12:57PM 36.4175 -119.6089 181° South 398 458 35,000  Level Oakland Center
12:58PM 36.3058 -119.6086 180° South 400 460 35,000  Level Oakland Center
12:59PM 36.1950 -119.6114 181° South 398 458 35,000  Level Oakland Center
01:00PM 36.0839 -119.6128 181° South 399 459 35,000  Level Oakland Center
01:01PM 35.9725 -119.6153 181° South 399 459 35,000  Level Oakland Center
01:02PM 35.8611 -119.6192 182° South 399 459 35,000  Level Oakland Center
01:03PM 35.7497 -119.6231 182° South 398 458 35,000  Level Oakland Center
01:04PM 35.6383 -119.6275 182° South 399 459 35,000  Level Los Angeles Center
01:05PM 35.5275 -119.6317 182° South 398 458 35,000  Level Los Angeles Center
01:06PM 35.3939 -119.6367 182° South 398 458 35,000  Level Los Angeles Center
01:07PM 35.2811 -119.6333 179° South 405 466 35,000 -660 Level Los Angeles Center
01:08PM 35.1728 -119.5689 154° Southeast 436 502 33,700 -1,740 Descending Los Angeles Center
01:09PM 35.0708 -119.4833 146° Southeast 443 510 31,500 -2,160 Descending Los Angeles Center
01:10PM 34.9736 -119.4000 145° Southeast 431 496 29,300 -2,100 Descending Los Angeles Center
01:11PM 34.8797 -119.3222 146° Southeast 412 474 27,200 -2,280 Descending Los Angeles Center
01:12PM 34.7697 -119.2311 146° Southeast 398 458 24,600 -2,220 Descending Los Angeles Center
01:13PM 34.6836 -119.1583 145° Southeast 380 437 22,700 -1,800 Descending Los Angeles Center
01:14PM 34.6025 -119.0894 145° Southeast 371 427 21,000 -1,740 Descending Los Angeles Center
01:15PM 34.5239 -119.0217 145° Southeast 350 403 19,200 -1,800 Descending Los Angeles Center
01:16PM 34.4425 -118.9556 146° Southeast 341 392 17,400 -1,920 Descending Los Angeles Center
01:18PM 34.3553 -118.8839 146° Southeast 326 375 15,300 -1,920 Descending Los Angeles Center
01:19PM 34.2714 -118.8508 162° South 313 360 13,400 -1,560 Descending Los Angeles Center
01:20PM 34.1931 -118.8219 163° South 302 348 12,100 -1,020 Descending Los Angeles Center
01:21PM 34.1128 -118.7917 163° South 303 349 11,300 -960 Descending Los Angeles Center
01:22PM 34.0386 -118.7322 146° Southeast 312 359 10,200 -840 Descending Los Angeles Center
01:23PM 34.0267 -118.6264 98° East 298 343 9,600 -780 Descending Los Angeles Center
01:24PM 34.0175 -118.5300 97° East 291 335 8,600 -1,020 Descending Los Angeles Center
01:25PM 34.0158 -118.4292 91° East 290 334 7,500 -1,020 Descending Los Angeles Center
01:26PM 34.0289 -118.3325 81° East 290 334 6,500 -1,200 Descending Los Angeles Center
01:27PM 34.0417 -118.2386 81° East 285 328 5,000 -1,020 Descending Los Angeles Center
01:28PM 34.0525 -118.1531 81° East 272 313 4,400 -720 Descending Los Angeles Center
01:28PM 34.0333 -118.1167 122° Southeast 219 252 3,900 -1,200 Descending Southern California TRACON
01:30PM 33.9833 -118.1167 180° South 200 230 2,500 -840 Descending Southern California TRACON
01:31PM 33.9667 -118.1833 253° West 190 219 2,300 -180 Descending Southern California TRACON
01:32PM 33.9667 -118.2500 270° West 193 222 2,200  Descending Southern California TRACON
01:32PM 33.9661 -118.2767 269° West 191 220 2,300 -480 Climbing Los Angeles Center
01:33PM 33.9600 -118.3339 263° West 182 209 1,500 -780 Descending Los Angeles Center
01:34PM 33.9558 -118.3789 264° West 154 177 700 -660 Descending Los Angeles Center
01:35PM 33.9503 -118.4275 262° West 144 166 200 -540 Descending Los Angeles Center